Time,TemperatureF,DewpointF,PressureIn,WindDirection,WindDirectionDegrees,WindSpeedMPH,WindSpeedGustMPH,Humidity,HourlyPrecipIn,Conditions,Clouds,dailyrainin,SoftwareType,DateUTC
2013-09-08 00:01:00,61.8,50.3,29.82,SE,133,2.0,2.0,66,0.00,,,0.00,Wunderground v.1.15,2013-09-08 04:01:00,
2013-09-08 00:02:00,61.8,50.3,29.82,SSE,148,4.0,4.0,66,0.00,,,0.00,Wunderground v.1.15,2013-09-08 04:02:00,
2013-09-08 00:04:00,61.8,50.3,29.82,SSE,148,0.0,4.0,66,0.00,,,0.00,Wunderground v.1.15,2013-09-08 04:04:00,
2013-09-08 00:10:00,62.0,50.1,29.82,SSE,148,0.0,2.0,65,0.00,,,0.00,Wunderground v.1.15,2013-09-08 04:10:00,
2013-09-08 00:15:00,62.0,50.5,29.82,SSE,151,4.0,4.0,66,0.00,,,0.00,Wunderground v.1.15,2013-09-08 04:15:00,
2013-09-08 00:17:00,62.0,50.5,29.82,SSE,150,3.0,4.0,66,0.00,,,0.00,Wunderground v.1.15,2013-09-08 04:17:00,
2013-09-08 00:20:00,62.0,50.1,29.82,SSE,151,0.0,2.0,65,0.00,,,0.00,Wunderground v.1.15,2013-09-08 04:20:00,
2013-09-08 00:25:00,61.8,49.9,29.82,SSE,151,0.0,2.0,65,0.00,,,0.00,Wunderground v.1.15,2013-09-08 04:25:00,
2013-09-08 00:26:00,61.8,50.3,29.82,SSE,152,0.0,2.0,66,0.00,,,0.00,Wunderground v.1.15,2013-09-08 04:26:00,
2013-09-08 00:31:00,61.6,50.1,29.82,SSE,152,0.0,2.0,66,0.00,,,0.00,Wunderground v.1.15,2013-09-08 04:31:00,
2013-09-08 00:36:00,61.6,50.1,29.82,SSE,152,0.0,2.0,66,0.00,,,0.00,Wunderground v.1.15,2013-09-08 04:36:00,
2013-09-08 00:42:00,61.6,49.7,29.82,SE,144,0.0,4.0,65,0.00,,,0.00,Wunderground v.1.15,2013-09-08 04:42:00,
2013-09-08 00:48:00,61.5,49.6,29.82,SE,146,5.0,5.0,65,0.00,,,0.00,Wunderground v.1.15,2013-09-08 04:48:00,
2013-09-08 00:54:00,61.6,49.3,29.82,SE,144,0.0,4.0,64,0.00,,,0.00,Wunderground v.1.15,2013-09-08 04:54:00,
2013-09-08 01:00:00,61.6,49.3,29.81,SE,144,6.0,6.0,64,0.00,,,0.00,Wunderground v.1.15,2013-09-08 05:00:00,
2013-09-08 01:06:00,61.6,48.9,29.81,SE,144,0.0,6.0,63,0.00,,,0.00,Wunderground v.1.15,2013-09-08 05:06:00,
2013-09-08 01:11:00,61.6,49.3,29.81,SE,143,0.0,1.0,64,0.00,,,0.00,Wunderground v.1.15,2013-09-08 05:11:00,
2013-09-08 01:16:00,61.5,49.2,29.80,SE,143,1.0,1.0,64,0.00,,,0.00,Wunderground v.1.15,2013-09-08 05:16:00,
2013-09-08 01:22:00,61.5,49.2,29.80,SE,138,0.0,4.0,64,0.00,,,0.00,Wunderground v.1.15,2013-09-08 05:22:00,
2013-09-08 01:27:00,61.5,48.8,29.80,SE,134,5.0,5.0,63,0.00,,,0.00,Wunderground v.1.15,2013-09-08 05:27:00,
2013-09-08 01:32:00,61.5,48.8,29.80,SSE,159,0.0,6.0,63,0.00,,,0.00,Wunderground v.1.15,2013-09-08 05:32:00,
2013-09-08 01:38:00,61.3,48.6,29.80,SSE,153,0.0,6.0,63,0.00,,,0.00,Wunderground v.1.15,2013-09-08 05:38:00,
2013-09-08 01:44:00,61.3,49.0,29.79,SSE,150,0.0,3.0,64,0.00,,,0.00,Wunderground v.1.15,2013-09-08 05:44:00,
2013-09-08 01:49:00,61.3,49.0,29.79,SE,141,0.0,4.0,64,0.00,,,0.00,Wunderground v.1.15,2013-09-08 05:49:00,
2013-09-08 01:55:00,61.3,49.0,29.79,SE,141,0.0,2.0,64,0.00,,,0.00,Wunderground v.1.15,2013-09-08 05:55:00,
2013-09-08 02:00:00,61.3,49.0,29.80,SE,141,0.0,1.0,64,0.00,,,0.00,Wunderground v.1.15,2013-09-08 06:00:00,
2013-09-08 02:05:00,61.3,49.0,29.80,SE,141,0.0,2.0,64,0.00,,,0.00,Wunderground v.1.15,2013-09-08 06:05:00,
2013-09-08 02:10:00,61.2,49.3,29.80,SE,141,0.0,0.0,65,0.00,,,0.00,Wunderground v.1.15,2013-09-08 06:10:00,
2013-09-08 02:15:00,61.0,49.6,29.78,SE,142,4.0,6.0,66,0.00,,,0.00,Wunderground v.1.15,2013-09-08 06:15:00,
2013-09-08 02:20:00,61.0,49.6,29.78,SE,144,3.0,3.0,66,0.00,,,0.00,Wunderground v.1.15,2013-09-08 06:20:00,
2013-09-08 02:25:00,61.0,49.6,29.78,SE,144,3.0,6.0,66,0.00,,,0.00,Wunderground v.1.15,2013-09-08 06:25:00,
2013-09-08 02:30:00,61.0,49.6,29.79,SE,144,0.0,1.0,66,0.00,,,0.00,Wunderground v.1.15,2013-09-08 06:30:00,
2013-09-08 02:35:00,61.0,49.6,29.79,SE,144,0.0,4.0,66,0.00,,,0.00,Wunderground v.1.15,2013-09-08 06:35:00,
2013-09-08 02:40:00,61.0,50.0,29.79,SE,144,0.0,0.0,67,0.00,,,0.00,Wunderground v.1.15,2013-09-08 06:40:00,
2013-09-08 02:45:00,60.9,49.9,29.79,SE,144,0.0,0.0,67,0.00,,,0.00,Wunderground v.1.15,2013-09-08 06:45:00,
2013-09-08 02:50:00,60.7,50.5,29.79,SE,144,0.0,0.0,69,0.00,,,0.00,Wunderground v.1.15,2013-09-08 06:50:00,
2013-09-08 02:55:00,60.5,49.9,29.79,SE,144,0.0,4.0,68,0.00,,,0.00,Wunderground v.1.15,2013-09-08 06:55:00,
2013-09-08 03:00:00,60.5,50.3,29.79,SE,144,0.0,0.0,69,0.00,,,0.00,Wunderground v.1.15,2013-09-08 07:00:00,
2013-09-08 03:05:00,60.5,50.3,29.79,SE,144,0.0,1.0,69,0.00,,,0.00,Wunderground v.1.15,2013-09-08 07:05:00,
2013-09-08 03:10:00,60.5,50.7,29.79,SE,144,0.0,0.0,70,0.00,,,0.00,Wunderground v.1.15,2013-09-08 07:10:00,
2013-09-08 03:15:00,60.4,50.6,29.78,SE,144,0.0,2.0,70,0.00,,,0.00,Wunderground v.1.15,2013-09-08 07:15:00,
2013-09-08 03:20:00,60.4,51.0,29.78,SE,144,5.0,5.0,71,0.00,,,0.00,Wunderground v.1.15,2013-09-08 07:20:00,
2013-09-08 03:25:00,60.4,51.0,29.78,SE,144,0.0,5.0,71,0.00,,,0.00,Wunderground v.1.15,2013-09-08 07:25:00,
2013-09-08 03:30:00,60.2,50.8,29.77,SE,144,3.0,3.0,71,0.00,,,0.00,Wunderground v.1.15,2013-09-08 07:30:00,
2013-09-08 03:35:00,60.1,50.7,29.77,SE,144,0.0,3.0,71,0.00,,,0.00,Wunderground v.1.15,2013-09-08 07:35:00,
2013-09-08 03:40:00,60.1,50.7,29.77,SE,144,0.0,1.0,71,0.00,,,0.00,Wunderground v.1.15,2013-09-08 07:40:00,
2013-09-08 03:45:00,59.9,50.8,29.78,SE,144,2.0,4.0,72,0.00,,,0.00,Wunderground v.1.15,2013-09-08 07:45:00,
2013-09-08 03:50:00,59.9,51.2,29.78,SE,144,0.0,0.0,73,0.00,,,0.00,Wunderground v.1.15,2013-09-08 07:50:00,
2013-09-08 03:55:00,59.8,51.5,29.78,SE,144,0.0,3.0,74,0.00,,,0.00,Wunderground v.1.15,2013-09-08 07:55:00,
2013-09-08 04:00:00,59.6,51.7,29.77,SE,144,0.0,0.0,75,0.00,,,0.00,Wunderground v.1.15,2013-09-08 08:00:00,
2013-09-08 04:06:00,59.5,51.6,29.77,SE,144,0.0,5.0,75,0.00,,,0.00,Wunderground v.1.15,2013-09-08 08:06:00,
2013-09-08 04:11:00,59.3,51.7,29.77,SE,143,0.0,5.0,76,0.00,,,0.00,Wunderground v.1.15,2013-09-08 08:11:00,
2013-09-08 04:16:00,59.3,52.1,29.76,SE,143,2.0,5.0,77,0.00,,,0.00,Wunderground v.1.15,2013-09-08 08:16:00,
2013-09-08 04:21:00,59.3,52.1,29.76,SE,143,0.0,1.0,77,0.00,,,0.00,Wunderground v.1.15,2013-09-08 08:21:00,
2013-09-08 04:26:00,59.3,52.4,29.76,SE,143,0.0,3.0,78,0.00,,,0.00,Wunderground v.1.15,2013-09-08 08:26:00,
2013-09-08 04:31:00,59.3,52.4,29.77,SE,143,0.0,0.0,78,0.00,,,0.00,Wunderground v.1.15,2013-09-08 08:31:00,
2013-09-08 04:36:00,59.2,52.7,29.77,SE,143,0.0,0.0,79,0.00,,,0.00,Wunderground v.1.15,2013-09-08 08:36:00,
2013-09-08 04:41:00,59.2,52.7,29.77,SE,143,0.0,2.0,79,0.00,,,0.00,Wunderground v.1.15,2013-09-08 08:41:00,
2013-09-08 04:46:00,59.2,52.7,29.76,SE,143,0.0,2.0,79,0.00,,,0.00,Wunderground v.1.15,2013-09-08 08:46:00,
2013-09-08 04:51:00,59.2,52.7,29.76,SE,143,0.0,0.0,79,0.00,,,0.00,Wunderground v.1.15,2013-09-08 08:51:00,
2013-09-08 04:56:00,59.2,52.7,29.76,SE,143,0.0,0.0,79,0.00,,,0.00,Wunderground v.1.15,2013-09-08 08:56:00,
2013-09-08 05:01:00,59.0,52.8,29.76,SE,143,0.0,2.0,80,0.00,,,0.00,Wunderground v.1.15,2013-09-08 09:01:00,
2013-09-08 05:06:00,59.0,52.8,29.76,SE,143,1.0,2.0,80,0.00,,,0.00,Wunderground v.1.15,2013-09-08 09:06:00,
2013-09-08 05:11:00,59.0,53.2,29.76,SE,143,0.0,0.0,81,0.00,,,0.00,Wunderground v.1.15,2013-09-08 09:11:00,
2013-09-08 05:16:00,59.0,53.2,29.77,SE,143,0.0,0.0,81,0.00,,,0.00,Wunderground v.1.15,2013-09-08 09:16:00,
2013-09-08 05:21:00,58.9,53.1,29.77,SE,143,0.0,2.0,81,0.00,,,0.00,Wunderground v.1.15,2013-09-08 09:21:00,
2013-09-08 05:26:00,59.0,53.8,29.77,SE,143,0.0,2.0,83,0.00,,,0.00,Wunderground v.1.15,2013-09-08 09:26:00,
2013-09-08 05:31:00,58.9,53.7,29.77,SE,143,0.0,0.0,83,0.00,,,0.00,Wunderground v.1.15,2013-09-08 09:31:00,
2013-09-08 05:36:00,58.7,53.9,29.77,SE,143,0.0,0.0,84,0.00,,,0.00,Wunderground v.1.15,2013-09-08 09:36:00,
2013-09-08 05:41:00,58.4,53.6,29.77,SE,143,0.0,0.0,84,0.00,,,0.01,Wunderground v.1.15,2013-09-08 09:41:00,
2013-09-08 05:46:00,58.6,54.1,29.77,SE,143,0.0,0.0,85,0.00,,,0.01,Wunderground v.1.15,2013-09-08 09:46:00,
2013-09-08 05:51:00,58.4,54.2,29.77,SE,143,0.0,0.0,86,0.00,,,0.01,Wunderground v.1.15,2013-09-08 09:51:00,
2013-09-08 05:56:00,58.4,54.5,29.77,SE,143,0.0,0.0,87,0.00,,,0.01,Wunderground v.1.15,2013-09-08 09:56:00,
2013-09-08 06:01:00,58.3,54.8,29.78,SE,143,0.0,1.0,88,0.00,,,0.01,Wunderground v.1.15,2013-09-08 10:01:00,
2013-09-08 06:06:00,58.1,54.9,29.78,SE,143,2.0,3.0,89,0.00,,,0.01,Wunderground v.1.15,2013-09-08 10:06:00,
2013-09-08 06:11:00,57.3,54.1,29.78,North,355,10.0,20.0,89,0.39,,,0.03,Wunderground v.1.15,2013-09-08 10:11:00,
2013-09-08 06:16:00,56.9,54.0,29.82,North,5,3.0,20.0,90,0.09,,,0.03,Wunderground v.1.15,2013-09-08 10:16:00,
2013-09-08 06:21:00,56.6,54.0,29.82,North,9,2.0,12.0,91,0.05,,,0.03,Wunderground v.1.15,2013-09-08 10:21:00,
2013-09-08 06:26:00,56.6,54.0,29.82,NNW,342,6.0,12.0,91,0.04,,,0.03,Wunderground v.1.15,2013-09-08 10:26:00,
2013-09-08 06:31:00,56.6,54.3,29.83,NNW,343,0.0,5.0,92,0.33,,,0.06,Wunderground v.1.15,2013-09-08 10:31:00,
2013-09-08 06:36:00,56.2,53.9,29.83,North,355,2.0,14.0,92,0.24,,,0.08,Wunderground v.1.15,2013-09-08 10:36:00,
2013-09-08 06:41:00,55.7,53.4,29.83,NNW,340,5.0,7.0,92,0.14,,,0.09,Wunderground v.1.15,2013-09-08 10:41:00,
2013-09-08 06:46:00,55.4,53.1,29.84,North,360,3.0,15.0,92,0.19,,,0.11,Wunderground v.1.15,2013-09-08 10:46:00,
2013-09-08 06:51:00,55.3,53.0,29.84,NNW,345,0.0,12.0,92,0.11,,,0.11,Wunderground v.1.15,2013-09-08 10:51:00,
2013-09-08 06:56:00,54.8,52.5,29.84,NNW,342,1.0,12.0,92,0.06,,,0.11,Wunderground v.1.15,2013-09-08 10:56:00,
2013-09-08 07:01:00,54.4,51.8,29.85,North,5,1.0,8.0,91,0.04,,,0.11,Wunderground v.1.15,2013-09-08 11:01:00,
2013-09-08 07:06:00,54.1,51.5,29.85,North,360,4.0,8.0,91,0.00,,,0.11,Wunderground v.1.15,2013-09-08 11:06:00,
2013-09-08 07:11:00,53.9,51.3,29.85,North,360,3.0,3.0,91,0.00,,,0.11,Wunderground v.1.15,2013-09-08 11:11:00,
2013-09-08 07:16:00,53.8,51.2,29.86,North,360,2.0,5.0,91,0.00,,,0.11,Wunderground v.1.15,2013-09-08 11:16:00,
2013-09-08 07:21:00,53.8,51.2,29.86,North,360,0.0,3.0,91,0.00,,,0.11,Wunderground v.1.15,2013-09-08 11:21:00,
2013-09-08 07:26:00,53.8,51.2,29.86,North,360,0.0,6.0,91,0.00,,,0.11,Wunderground v.1.15,2013-09-08 11:26:00,
2013-09-08 07:31:00,53.9,51.3,29.87,North,360,0.0,1.0,91,0.00,,,0.11,Wunderground v.1.15,2013-09-08 11:31:00,
2013-09-08 07:37:00,54.4,52.1,29.87,NNE,18,0.0,6.0,92,0.00,,,0.12,Wunderground v.1.15,2013-09-08 11:37:00,
2013-09-08 07:42:00,54.7,52.7,29.87,NNE,18,2.0,3.0,93,0.00,,,0.12,Wunderground v.1.15,2013-09-08 11:42:00,
2013-09-08 07:47:00,54.8,52.8,29.86,NNE,16,0.0,7.0,93,0.00,,,0.12,Wunderground v.1.15,2013-09-08 11:47:00,
2013-09-08 07:52:00,54.8,52.5,29.86,NE,38,0.0,9.0,92,0.00,,,0.12,Wunderground v.1.15,2013-09-08 11:52:00,
2013-09-08 07:57:00,55.0,52.7,29.86,NE,36,0.0,9.0,92,0.00,,,0.12,Wunderground v.1.15,2013-09-08 11:57:00,
2013-09-08 08:02:00,55.1,52.8,29.87,NE,36,2.0,5.0,92,0.00,,,0.12,Wunderground v.1.15,2013-09-08 12:02:00,
2013-09-08 08:07:00,55.6,53.3,29.87,NE,34,1.0,6.0,92,0.00,,,0.12,Wunderground v.1.15,2013-09-08 12:07:00,
2013-09-08 08:12:00,56.5,54.2,29.87,NE,46,0.0,7.0,92,0.00,,,0.12,Wunderground v.1.15,2013-09-08 12:12:00,
2013-09-08 08:17:00,56.7,53.8,29.87,North,9,0.0,9.0,90,0.00,,,0.12,Wunderground v.1.15,2013-09-08 12:17:00,
2013-09-08 08:22:00,56.7,53.2,29.87,NNW,336,4.0,11.0,88,0.00,,,0.12,Wunderground v.1.15,2013-09-08 12:22:00,
2013-09-08 08:27:00,57.3,53.1,29.87,NNW,328,3.0,11.0,86,0.00,,,0.12,Wunderground v.1.15,2013-09-08 12:27:00,
2013-09-08 08:32:00,57.3,51.9,29.87,NNW,336,5.0,11.0,82,0.00,,,0.12,Wunderground v.1.15,2013-09-08 12:32:00,
2013-09-08 08:37:00,58.0,52.5,29.87,NNW,334,6.0,11.0,82,0.00,,,0.12,Wunderground v.1.15,2013-09-08 12:37:00,
2013-09-08 08:42:00,58.4,52.3,29.87,NNW,344,2.0,4.0,80,0.00,,,0.12,Wunderground v.1.15,2013-09-08 12:42:00,
2013-09-08 08:47:00,58.9,52.4,29.88,North,355,1.0,9.0,79,0.00,,,0.12,Wunderground v.1.15,2013-09-08 12:47:00,
2013-09-08 08:52:00,59.0,51.8,29.88,North,355,1.0,11.0,77,0.00,,,0.12,Wunderground v.1.15,2013-09-08 12:52:00,
2013-09-08 08:57:00,59.0,50.7,29.88,NNW,347,5.0,11.0,74,0.00,,,0.12,Wunderground v.1.15,2013-09-08 12:57:00,
2013-09-08 09:02:00,59.0,49.6,29.88,North,355,3.0,9.0,71,0.00,,,0.12,Wunderground v.1.15,2013-09-08 13:02:00,
2013-09-08 09:07:00,58.3,48.2,29.88,North,5,9.0,13.0,69,0.00,,,0.12,Wunderground v.1.15,2013-09-08 13:07:00,
2013-09-08 09:12:00,57.8,47.7,29.88,NNW,344,8.0,17.0,69,0.00,,,0.12,Wunderground v.1.15,2013-09-08 13:12:00,
2013-09-08 09:17:00,57.8,47.3,29.88,NNW,340,0.0,18.0,68,0.00,,,0.12,Wunderground v.1.15,2013-09-08 13:17:00,
2013-09-08 09:22:00,58.3,47.8,29.88,NNW,343,5.0,15.0,68,0.00,,,0.12,Wunderground v.1.15,2013-09-08 13:22:00,
2013-09-08 09:28:00,58.9,47.2,29.88,NNW,339,10.0,24.0,65,0.00,,,0.12,Wunderground v.1.15,2013-09-08 13:28:00,
2013-09-08 09:33:00,59.2,47.4,29.90,NW,319,8.0,15.0,65,0.00,,,0.12,Wunderground v.1.15,2013-09-08 13:33:00,
2013-09-08 09:38:00,59.8,47.6,29.90,NNW,329,6.0,16.0,64,0.00,,,0.12,Wunderground v.1.15,2013-09-08 13:38:00,
2013-09-08 09:43:00,59.5,46.0,29.90,North,351,0.0,11.0,61,0.00,,,0.12,Wunderground v.1.15,2013-09-08 13:43:00,
2013-09-08 09:48:00,59.5,44.7,29.90,North,5,6.0,19.0,58,0.00,,,0.12,Wunderground v.1.15,2013-09-08 13:48:00,
2013-09-08 09:53:00,59.6,45.7,29.90,North,360,6.0,11.0,60,0.00,,,0.12,Wunderground v.1.15,2013-09-08 13:53:00,
2013-09-08 09:58:00,60.1,45.7,29.90,NNW,331,6.0,15.0,59,0.00,,,0.12,Wunderground v.1.15,2013-09-08 13:58:00,
2013-09-08 10:03:00,60.5,46.1,29.90,NNW,343,4.0,16.0,59,0.00,,,0.12,Wunderground v.1.15,2013-09-08 14:03:00,
2013-09-08 10:08:00,59.3,44.5,29.90,North,355,6.0,17.0,58,0.00,,,0.12,Wunderground v.1.15,2013-09-08 14:08:00,
2013-09-08 10:13:00,59.0,46.0,29.90,NNW,334,0.0,15.0,62,0.00,,,0.12,Wunderground v.1.15,2013-09-08 14:13:00,
2013-09-08 10:18:00,59.0,45.6,29.90,NW,323,3.0,18.0,61,0.00,,,0.12,Wunderground v.1.15,2013-09-08 14:18:00,
2013-09-08 10:23:00,59.3,47.9,29.90,North,350,0.0,11.0,66,0.00,,,0.12,Wunderground v.1.15,2013-09-08 14:23:00,
2013-09-08 10:28:00,59.8,46.3,29.91,NW,324,5.0,11.0,61,0.00,,,0.12,Wunderground v.1.15,2013-09-08 14:28:00,
2013-09-08 10:33:00,60.1,45.3,29.91,NW,323,8.0,19.0,58,0.00,,,0.12,Wunderground v.1.15,2013-09-08 14:33:00,
2013-09-08 10:38:00,59.9,45.1,29.91,NNW,340,16.0,19.0,58,0.00,,,0.12,Wunderground v.1.15,2013-09-08 14:38:00,
2013-09-08 10:43:00,59.2,45.3,29.91,NNW,339,6.0,17.0,60,0.00,,,0.12,Wunderground v.1.15,2013-09-08 14:43:00,
2013-09-08 10:48:00,59.5,46.5,29.91,NW,325,3.0,17.0,62,0.00,,,0.12,Wunderground v.1.15,2013-09-08 14:48:00,
2013-09-08 10:53:00,59.6,47.4,29.91,North,350,4.0,13.0,64,0.00,,,0.12,Wunderground v.1.15,2013-09-08 14:53:00,
2013-09-08 10:58:00,60.2,46.7,29.92,North,5,9.0,13.0,61,0.00,,,0.12,Wunderground v.1.15,2013-09-08 14:58:00,
2013-09-08 11:03:00,59.8,46.3,29.92,North,351,4.0,15.0,61,0.00,,,0.12,Wunderground v.1.15,2013-09-08 15:03:00,
2013-09-08 11:08:00,60.4,48.2,29.92,NNW,343,4.0,15.0,64,0.00,,,0.12,Wunderground v.1.15,2013-09-08 15:08:00,
2013-09-08 11:13:00,60.2,46.3,29.92,NNE,27,5.0,13.0,60,0.00,,,0.12,Wunderground v.1.15,2013-09-08 15:13:00,
2013-09-08 11:18:00,59.3,45.4,29.92,North,355,13.0,13.0,60,0.00,,,0.12,Wunderground v.1.15,2013-09-08 15:18:00,
2013-09-08 11:23:00,58.9,45.9,29.92,North,360,6.0,11.0,62,0.00,,,0.12,Wunderground v.1.15,2013-09-08 15:23:00,
2013-09-08 11:28:00,58.4,45.8,29.93,NNE,17,12.0,12.0,63,0.00,,,0.12,Wunderground v.1.15,2013-09-08 15:28:00,
2013-09-08 11:33:00,57.8,45.3,29.93,North,355,7.0,17.0,63,0.00,,,0.12,Wunderground v.1.15,2013-09-08 15:33:00,
2013-09-08 11:38:00,57.2,43.9,29.93,NNW,343,14.0,18.0,61,0.00,,,0.12,Wunderground v.1.15,2013-09-08 15:38:00,
2013-09-08 11:43:00,57.0,45.3,29.93,North,355,3.0,8.0,65,0.00,,,0.12,Wunderground v.1.15,2013-09-08 15:43:00,
2013-09-08 11:48:00,57.0,45.3,29.93,NNE,19,9.0,12.0,65,0.00,,,0.12,Wunderground v.1.15,2013-09-08 15:48:00,
2013-09-08 11:53:00,57.8,46.5,29.93,North,360,1.0,15.0,66,0.00,,,0.12,Wunderground v.1.15,2013-09-08 15:53:00,
2013-09-08 11:58:00,59.0,45.6,29.93,NNE,21,13.0,19.0,61,0.00,,,0.12,Wunderground v.1.15,2013-09-08 15:58:00,
2013-09-08 12:04:00,58.3,44.9,29.93,North,360,12.0,14.0,61,0.00,,,0.12,Wunderground v.1.15,2013-09-08 16:04:00,
2013-09-08 12:09:00,57.8,43.6,29.93,North,360,15.0,17.0,59,0.00,,,0.12,Wunderground v.1.15,2013-09-08 16:09:00,
2013-09-08 12:14:00,57.3,44.0,29.94,NNE,18,5.0,14.0,61,0.00,,,0.12,Wunderground v.1.15,2013-09-08 16:14:00,
2013-09-08 12:19:00,57.3,44.4,29.94,NNW,344,14.0,16.0,62,0.00,,,0.12,Wunderground v.1.15,2013-09-08 16:19:00,
2013-09-08 12:24:00,58.1,45.6,29.94,NNW,344,14.0,19.0,63,0.00,,,0.12,Wunderground v.1.15,2013-09-08 16:24:00,
2013-09-08 12:29:00,58.1,44.7,29.94,NNW,340,5.0,20.0,61,0.00,,,0.12,Wunderground v.1.15,2013-09-08 16:29:00,
2013-09-08 12:34:00,57.8,44.0,29.94,NNW,330,4.0,17.0,60,0.00,,,0.12,Wunderground v.1.15,2013-09-08 16:34:00,
2013-09-08 12:39:00,57.8,44.9,29.94,NE,43,7.0,17.0,62,0.00,,,0.12,Wunderground v.1.15,2013-09-08 16:39:00,
2013-09-08 12:44:00,58.4,44.1,29.94,NNE,18,7.0,13.0,59,0.00,,,0.12,Wunderground v.1.15,2013-09-08 16:44:00,
2013-09-08 12:49:00,58.9,44.6,29.94,North,5,10.0,17.0,59,0.00,,,0.12,Wunderground v.1.15,2013-09-08 16:49:00,
2013-09-08 12:54:00,58.4,44.1,29.94,North,360,9.0,16.0,59,0.00,,,0.12,Wunderground v.1.15,2013-09-08 16:54:00,
2013-09-08 12:59:00,57.6,43.8,29.94,NNE,32,5.0,16.0,60,0.00,,,0.12,Wunderground v.1.15,2013-09-08 16:59:00,
2013-09-08 13:04:00,57.8,44.9,29.94,NE,40,4.0,13.0,62,0.00,,,0.12,Wunderground v.1.15,2013-09-08 17:04:00,
2013-09-08 13:09:00,58.7,44.4,29.94,NE,49,3.0,14.0,59,0.00,,,0.12,Wunderground v.1.15,2013-09-08 17:09:00,
2013-09-08 13:14:00,59.8,47.6,29.94,North,360,4.0,12.0,64,0.00,,,0.12,Wunderground v.1.15,2013-09-08 17:14:00,
2013-09-08 13:19:00,60.1,45.7,29.94,ENE,57,7.0,14.0,59,0.00,,,0.12,Wunderground v.1.15,2013-09-08 17:19:00,
2013-09-08 13:24:00,60.4,46.0,29.94,NNW,340,3.0,10.0,59,0.00,,,0.12,Wunderground v.1.15,2013-09-08 17:24:00,
2013-09-08 13:29:00,60.9,45.1,29.95,North,5,7.0,14.0,56,0.00,,,0.12,Wunderground v.1.15,2013-09-08 17:29:00,
2013-09-08 13:34:00,60.7,45.4,29.95,North,351,2.0,10.0,57,0.00,,,0.12,Wunderground v.1.15,2013-09-08 17:34:00,
2013-09-08 13:40:00,60.4,45.1,29.95,North,360,7.0,11.0,57,0.00,,,0.12,Wunderground v.1.15,2013-09-08 17:40:00,
2013-09-08 13:45:00,60.7,45.8,29.95,North,360,1.0,13.0,58,0.00,,,0.12,Wunderground v.1.15,2013-09-08 17:45:00,
2013-09-08 13:50:00,60.7,45.4,29.95,NE,53,7.0,7.0,57,0.00,,,0.12,Wunderground v.1.15,2013-09-08 17:50:00,
2013-09-08 13:55:00,60.7,44.9,29.95,North,11,1.0,14.0,56,0.00,,,0.12,Wunderground v.1.15,2013-09-08 17:55:00,
2013-09-08 14:00:00,61.2,45.4,29.95,NNE,28,8.0,14.0,56,0.00,,,0.12,Wunderground v.1.15,2013-09-08 18:00:00,
2013-09-08 14:06:00,61.8,46.4,29.95,North,360,2.0,15.0,57,0.00,,,0.12,Wunderground v.1.15,2013-09-08 18:06:00,
2013-09-08 14:11:00,62.1,45.2,29.95,North,355,7.0,15.0,54,0.00,,,0.12,Wunderground v.1.15,2013-09-08 18:11:00,
2013-09-08 14:16:00,61.6,44.3,29.95,NNW,339,11.0,15.0,53,0.00,,,0.12,Wunderground v.1.15,2013-09-08 18:16:00,
2013-09-08 14:21:00,61.8,44.5,29.95,NNW,345,4.0,9.0,53,0.00,,,0.12,Wunderground v.1.15,2013-09-08 18:21:00,
2013-09-08 14:26:00,62.1,45.7,29.95,NNW,344,3.0,16.0,55,0.00,,,0.12,Wunderground v.1.15,2013-09-08 18:26:00,
2013-09-08 14:31:00,62.7,46.3,29.94,North,355,9.0,11.0,55,0.00,,,0.12,Wunderground v.1.15,2013-09-08 18:31:00,
2013-09-08 14:36:00,62.9,46.0,29.94,NNE,17,6.0,11.0,54,0.00,,,0.12,Wunderground v.1.15,2013-09-08 18:36:00,
2013-09-08 14:41:00,62.9,45.0,29.94,NE,43,4.0,7.0,52,0.00,,,0.12,Wunderground v.1.15,2013-09-08 18:41:00,
2013-09-08 14:46:00,63.2,45.8,29.94,North,355,3.0,13.0,53,0.00,,,0.12,Wunderground v.1.15,2013-09-08 18:46:00,
2013-09-08 14:51:00,64.0,45.0,29.94,NNE,17,3.0,8.0,50,0.00,,,0.12,Wunderground v.1.15,2013-09-08 18:51:00,
2013-09-08 14:56:00,64.3,44.2,29.94,North,355,2.0,14.0,48,0.00,,,0.12,Wunderground v.1.15,2013-09-08 18:56:00,
2013-09-08 15:01:00,64.5,44.9,29.94,NNW,337,8.0,11.0,49,0.00,,,0.12,Wunderground v.1.15,2013-09-08 19:01:00,
2013-09-08 15:06:00,64.2,44.1,29.94,NE,52,10.0,13.0,48,0.00,,,0.12,Wunderground v.1.15,2013-09-08 19:06:00,
2013-09-08 15:11:00,64.0,43.9,29.94,NNW,327,12.0,12.0,48,0.00,,,0.12,Wunderground v.1.15,2013-09-08 19:11:00,
2013-09-08 15:16:00,64.3,44.2,29.94,NNW,335,9.0,16.0,48,0.00,,,0.12,Wunderground v.1.15,2013-09-08 19:16:00,
2013-09-08 15:21:00,65.2,43.3,29.94,WNW,296,4.0,16.0,45,0.00,,,0.12,Wunderground v.1.15,2013-09-08 19:21:00,
2013-09-08 15:26:00,65.2,42.7,29.94,NNW,338,6.0,17.0,44,0.00,,,0.12,Wunderground v.1.15,2013-09-08 19:26:00,
2013-09-08 15:31:00,64.8,41.8,29.94,North,5,10.0,14.0,43,0.00,,,0.12,Wunderground v.1.15,2013-09-08 19:31:00,
2013-09-08 15:36:00,64.7,40.4,29.94,North,11,5.0,16.0,41,0.00,,,0.12,Wunderground v.1.15,2013-09-08 19:36:00,
2013-09-08 15:41:00,64.7,40.4,29.94,NNW,344,7.0,13.0,41,0.00,,,0.12,Wunderground v.1.15,2013-09-08 19:41:00,
2013-09-08 15:46:00,64.7,41.1,29.94,NNW,343,9.0,19.0,42,0.00,,,0.12,Wunderground v.1.15,2013-09-08 19:46:00,
2013-09-08 15:51:00,65.0,42.5,29.94,North,349,12.0,13.0,44,0.00,,,0.12,Wunderground v.1.15,2013-09-08 19:51:00,
2013-09-08 15:56:00,64.5,40.9,29.94,North,360,6.0,15.0,42,0.00,,,0.12,Wunderground v.1.15,2013-09-08 19:56:00,
2013-09-08 16:02:00,64.5,42.1,29.94,North,351,4.0,10.0,44,0.00,,,0.12,Wunderground v.1.15,2013-09-08 20:02:00,
2013-09-08 16:07:00,65.0,40.7,29.94,NNW,340,20.0,20.0,41,0.00,,,0.12,Wunderground v.1.15,2013-09-08 20:07:00,
2013-09-08 16:12:00,64.7,40.4,29.94,North,350,11.0,15.0,41,0.00,,,0.12,Wunderground v.1.15,2013-09-08 20:12:00,
2013-09-08 16:17:00,64.8,41.2,29.95,NW,325,3.0,16.0,42,0.00,,,0.12,Wunderground v.1.15,2013-09-08 20:17:00,
2013-09-08 16:22:00,64.5,40.3,29.95,NNW,347,6.0,14.0,41,0.00,,,0.12,Wunderground v.1.15,2013-09-08 20:22:00,
2013-09-08 16:27:00,64.7,41.7,29.95,North,5,1.0,14.0,43,0.00,,,0.12,Wunderground v.1.15,2013-09-08 20:27:00,
2013-09-08 16:32:00,64.8,41.8,29.95,NNW,346,16.0,16.0,43,0.00,,,0.12,Wunderground v.1.15,2013-09-08 20:32:00,
2013-09-08 16:37:00,64.8,39.9,29.95,NNW,336,7.0,17.0,40,0.00,,,0.12,Wunderground v.1.15,2013-09-08 20:37:00,
2013-09-08 16:42:00,65.2,40.3,29.95,NNW,348,11.0,12.0,40,0.00,,,0.12,Wunderground v.1.15,2013-09-08 20:42:00,
2013-09-08 16:47:00,65.0,40.1,29.96,NNW,329,3.0,18.0,40,0.00,,,0.12,Wunderground v.1.15,2013-09-08 20:47:00,
2013-09-08 16:52:00,64.8,40.5,29.96,North,360,3.0,14.0,41,0.00,,,0.12,Wunderground v.1.15,2013-09-08 20:52:00,
2013-09-08 16:57:00,64.5,40.9,29.96,WNW,294,15.0,15.0,42,0.00,,,0.12,Wunderground v.1.15,2013-09-08 20:57:00,
2013-09-08 17:02:00,64.2,39.4,29.96,NW,314,13.0,19.0,40,0.00,,,0.12,Wunderground v.1.15,2013-09-08 21:02:00,
2013-09-08 17:07:00,63.9,41.0,29.96,North,355,1.0,19.0,43,0.00,,,0.12,Wunderground v.1.15,2013-09-08 21:07:00,
2013-09-08 17:12:00,64.2,41.8,29.96,NW,321,3.0,14.0,44,0.00,,,0.12,Wunderground v.1.15,2013-09-08 21:12:00,
2013-09-08 17:17:00,64.5,42.1,29.96,NNW,331,5.0,14.0,44,0.00,,,0.12,Wunderground v.1.15,2013-09-08 21:17:00,
2013-09-08 17:22:00,64.3,41.3,29.96,NNE,13,3.0,17.0,43,0.00,,,0.12,Wunderground v.1.15,2013-09-08 21:22:00,
2013-09-08 17:27:00,64.0,41.6,29.96,NNW,343,0.0,19.0,44,0.00,,,0.12,Wunderground v.1.15,2013-09-08 21:27:00,
2013-09-08 17:33:00,63.7,40.2,29.97,NW,316,4.0,16.0,42,0.00,,,0.12,Wunderground v.1.15,2013-09-08 21:33:00,
2013-09-08 17:38:00,63.1,39.6,29.97,NW,323,2.0,17.0,42,0.00,,,0.12,Wunderground v.1.15,2013-09-08 21:38:00,
2013-09-08 17:43:00,62.7,39.3,29.97,NNW,331,3.0,13.0,42,0.00,,,0.12,Wunderground v.1.15,2013-09-08 21:43:00,
2013-09-08 17:48:00,62.9,39.4,29.97,NNW,333,3.0,15.0,42,0.00,,,0.12,Wunderground v.1.15,2013-09-08 21:48:00,
2013-09-08 17:53:00,62.9,40.0,29.97,NNW,348,6.0,9.0,43,0.00,,,0.12,Wunderground v.1.15,2013-09-08 21:53:00,
2013-09-08 17:58:00,62.7,39.9,29.97,North,351,2.0,10.0,43,0.00,,,0.12,Wunderground v.1.15,2013-09-08 21:58:00,
2013-09-08 18:03:00,62.6,39.2,29.98,NNW,345,0.0,9.0,42,0.00,,,0.12,Wunderground v.1.15,2013-09-08 22:03:00,
2013-09-08 18:08:00,62.6,40.4,29.98,NNW,338,2.0,10.0,44,0.00,,,0.12,Wunderground v.1.15,2013-09-08 22:08:00,
2013-09-08 18:13:00,62.6,40.4,29.98,NNW,342,13.0,15.0,44,0.00,,,0.12,Wunderground v.1.15,2013-09-08 22:13:00,
2013-09-08 18:18:00,62.3,40.1,29.99,NNW,345,6.0,15.0,44,0.00,,,0.12,Wunderground v.1.15,2013-09-08 22:18:00,
2013-09-08 18:23:00,62.0,39.8,29.99,North,355,3.0,14.0,44,0.00,,,0.12,Wunderground v.1.15,2013-09-08 22:23:00,
2013-09-08 18:28:00,61.6,40.0,29.99,NNW,342,4.0,14.0,45,0.00,,,0.12,Wunderground v.1.15,2013-09-08 22:28:00,
2013-09-08 18:33:00,61.3,40.9,30.00,NNW,340,0.0,10.0,47,0.00,,,0.12,Wunderground v.1.15,2013-09-08 22:33:00,
2013-09-08 18:38:00,61.0,41.2,30.00,NW,321,4.0,12.0,48,0.00,,,0.12,Wunderground v.1.15,2013-09-08 22:38:00,
2013-09-08 18:43:00,60.7,40.9,30.00,NNW,338,0.0,10.0,48,0.00,,,0.12,Wunderground v.1.15,2013-09-08 22:43:00,
2013-09-08 18:48:00,60.4,39.5,30.01,NNW,346,2.0,10.0,46,0.00,,,0.12,Wunderground v.1.15,2013-09-08 22:48:00,
2013-09-08 18:53:00,60.1,39.8,30.01,NNW,339,3.0,7.0,47,0.00,,,0.12,Wunderground v.1.15,2013-09-08 22:53:00,
2013-09-08 18:58:00,59.5,39.8,30.01,North,5,0.0,9.0,48,0.00,,,0.12,Wunderground v.1.15,2013-09-08 22:58:00,
2013-09-08 19:03:00,58.9,40.8,30.01,NNW,328,4.0,7.0,51,0.00,,,0.12,Wunderground v.1.15,2013-09-08 23:03:00,
2013-09-08 19:08:00,58.4,40.8,30.01,North,355,2.0,7.0,52,0.00,,,0.12,Wunderground v.1.15,2013-09-08 23:08:00,
2013-09-08 19:13:00,58.0,40.5,30.02,NNW,336,5.0,10.0,52,0.00,,,0.12,Wunderground v.1.15,2013-09-08 23:13:00,
2013-09-08 19:18:00,57.6,40.6,30.02,North,349,7.0,10.0,53,0.00,,,0.12,Wunderground v.1.15,2013-09-08 23:18:00,
2013-09-08 19:23:00,57.5,40.0,30.02,NNW,333,6.0,11.0,52,0.00,,,0.12,Wunderground v.1.15,2013-09-08 23:23:00,
2013-09-08 19:28:00,57.5,40.5,30.03,NNW,333,6.0,14.0,53,0.00,,,0.12,Wunderground v.1.15,2013-09-08 23:28:00,
2013-09-08 19:33:00,57.3,39.8,30.03,NNW,336,0.0,6.0,52,0.00,,,0.12,Wunderground v.1.15,2013-09-08 23:33:00,
2013-09-08 19:39:00,57.2,40.2,30.03,NNW,331,2.0,6.0,53,0.00,,,0.12,Wunderground v.1.15,2013-09-08 23:39:00,
2013-09-08 19:44:00,56.9,39.9,30.03,NNW,338,0.0,4.0,53,0.00,,,0.12,Wunderground v.1.15,2013-09-08 23:44:00,
2013-09-08 19:49:00,56.6,40.6,30.03,NNW,338,0.0,4.0,55,0.00,,,0.12,Wunderground v.1.15,2013-09-08 23:49:00,
2013-09-08 19:54:00,56.2,40.7,30.03,NNW,338,4.0,4.0,56,0.00,,,0.12,Wunderground v.1.15,2013-09-08 23:54:00,
2013-09-08 19:59:00,55.9,40.9,30.04,NNW,338,0.0,4.0,57,0.00,,,0.12,Wunderground v.1.15,2013-09-08 23:59:00,
2013-09-08 20:05:00,55.4,40.9,30.04,NNW,338,0.0,2.0,58,0.00,,,0.12,Wunderground v.1.15,2013-09-09 00:05:00,
2013-09-08 20:10:00,55.1,41.0,30.04,NNW,338,0.0,2.0,59,0.00,,,0.12,Wunderground v.1.15,2013-09-09 00:10:00,
2013-09-08 20:15:00,54.8,41.2,30.04,NNW,336,1.0,6.0,60,0.00,,,0.12,Wunderground v.1.15,2013-09-09 00:15:00,
2013-09-08 20:20:00,54.7,41.5,30.04,NNW,336,0.0,6.0,61,0.00,,,0.12,Wunderground v.1.15,2013-09-09 00:20:00,
2013-09-08 20:25:00,54.5,41.3,30.04,NNW,336,0.0,4.0,61,0.00,,,0.12,Wunderground v.1.15,2013-09-09 00:25:00,
2013-09-08 20:30:00,54.5,41.3,30.06,NNW,336,1.0,4.0,61,0.00,,,0.12,Wunderground v.1.15,2013-09-09 00:30:00,
2013-09-08 20:35:00,54.5,40.9,30.06,NNW,331,0.0,10.0,60,0.00,,,0.12,Wunderground v.1.15,2013-09-09 00:35:00,
2013-09-08 20:40:00,54.8,41.2,30.06,NNW,338,0.0,10.0,60,0.00,,,0.12,Wunderground v.1.15,2013-09-09 00:40:00,
2013-09-08 20:45:00,54.8,41.2,30.06,NNW,338,1.0,4.0,60,0.00,,,0.12,Wunderground v.1.15,2013-09-09 00:45:00,
2013-09-08 20:50:00,54.5,41.3,30.06,NNW,338,0.0,4.0,61,0.00,,,0.12,Wunderground v.1.15,2013-09-09 00:50:00,
2013-09-08 20:55:00,54.4,41.6,30.06,NNW,338,0.0,4.0,62,0.00,,,0.12,Wunderground v.1.15,2013-09-09 00:55:00,
2013-09-08 21:00:00,54.4,41.6,30.07,NNW,338,6.0,6.0,62,0.00,,,0.12,Wunderground v.1.15,2013-09-09 01:00:00,
2013-09-08 21:05:00,54.4,41.6,30.07,NNW,336,2.0,6.0,62,0.00,,,0.12,Wunderground v.1.15,2013-09-09 01:05:00,
2013-09-08 21:10:00,54.2,41.5,30.07,NNW,334,0.0,1.0,62,0.00,,,0.12,Wunderground v.1.15,2013-09-09 01:10:00,
2013-09-08 21:15:00,54.2,41.5,30.07,NNW,334,0.0,3.0,62,0.00,,,0.12,Wunderground v.1.15,2013-09-09 01:15:00,
2013-09-08 21:20:00,54.1,41.4,30.07,NNW,334,0.0,1.0,62,0.00,,,0.12,Wunderground v.1.15,2013-09-09 01:20:00,
2013-09-08 21:25:00,53.9,41.6,30.07,NNW,334,0.0,5.0,63,0.00,,,0.12,Wunderground v.1.15,2013-09-09 01:25:00,
2013-09-08 21:30:00,53.8,41.5,30.07,NNW,334,0.0,0.0,63,0.00,,,0.12,Wunderground v.1.15,2013-09-09 01:30:00,
2013-09-08 21:35:00,53.3,41.8,30.07,NNW,334,0.0,0.0,65,0.00,,,0.12,Wunderground v.1.15,2013-09-09 01:35:00,
2013-09-08 21:40:00,52.6,41.9,30.07,NNW,334,0.0,0.0,67,0.00,,,0.12,Wunderground v.1.15,2013-09-09 01:40:00,
2013-09-08 21:45:00,52.3,42.0,30.07,NNW,334,0.0,0.0,68,0.00,,,0.12,Wunderground v.1.15,2013-09-09 01:45:00,
2013-09-08 21:50:00,52.0,42.1,30.07,NNW,334,0.0,0.0,69,0.00,,,0.12,Wunderground v.1.15,2013-09-09 01:50:00,
2013-09-08 21:55:00,51.7,41.9,30.07,NNW,334,0.0,0.0,69,0.00,,,0.12,Wunderground v.1.15,2013-09-09 01:55:00,
2013-09-08 22:00:00,51.4,42.3,30.07,NNW,334,0.0,0.0,71,0.00,,,0.12,Wunderground v.1.15,2013-09-09 02:00:00,
2013-09-08 22:05:00,50.7,42.7,30.07,NNW,334,0.0,0.0,74,0.00,,,0.12,Wunderground v.1.15,2013-09-09 02:05:00,
2013-09-08 22:10:00,49.9,42.6,30.07,NNW,334,0.0,0.0,76,0.00,,,0.12,Wunderground v.1.15,2013-09-09 02:10:00,
2013-09-08 22:15:00,49.4,42.5,30.07,NNW,334,0.0,0.0,77,0.00,,,0.12,Wunderground v.1.15,2013-09-09 02:15:00,
2013-09-08 22:20:00,49.2,42.3,30.07,NNW,334,0.0,0.0,77,0.00,,,0.12,Wunderground v.1.15,2013-09-09 02:20:00,
2013-09-08 22:25:00,49.1,42.5,30.07,NNW,334,0.0,0.0,78,0.00,,,0.12,Wunderground v.1.15,2013-09-09 02:25:00,
2013-09-08 22:30:00,48.9,42.3,30.07,NNW,334,0.0,0.0,78,0.00,,,0.12,Wunderground v.1.15,2013-09-09 02:30:00,
2013-09-08 22:35:00,48.6,42.4,30.07,NNW,334,0.0,0.0,79,0.00,,,0.12,Wunderground v.1.15,2013-09-09 02:35:00,
2013-09-08 22:40:00,48.0,42.1,30.07,NNW,334,0.0,0.0,80,0.00,,,0.12,Wunderground v.1.15,2013-09-09 02:40:00,
2013-09-08 22:45:00,47.7,42.5,30.08,NNW,334,0.0,0.0,82,0.00,,,0.12,Wunderground v.1.15,2013-09-09 02:45:00,
2013-09-08 22:50:00,47.6,42.4,30.08,NNW,334,0.0,0.0,82,0.00,,,0.12,Wunderground v.1.15,2013-09-09 02:50:00,
2013-09-08 22:55:00,47.4,42.5,30.08,NNW,334,0.0,0.0,83,0.00,,,0.12,Wunderground v.1.15,2013-09-09 02:55:00,
2013-09-08 23:00:00,47.3,42.4,30.08,NNW,334,0.0,0.0,83,0.00,,,0.12,Wunderground v.1.15,2013-09-09 03:00:00,
2013-09-08 23:05:00,47.1,42.5,30.08,NNW,334,0.0,0.0,84,0.00,,,0.12,Wunderground v.1.15,2013-09-09 03:05:00,
2013-09-08 23:10:00,46.8,42.2,30.08,NNW,334,0.0,0.0,84,0.00,,,0.12,Wunderground v.1.15,2013-09-09 03:10:00,
2013-09-08 23:15:00,46.7,42.4,30.09,NNW,334,0.0,0.0,85,0.00,,,0.12,Wunderground v.1.15,2013-09-09 03:15:00,
2013-09-08 23:20:00,46.2,41.9,30.09,NNW,334,0.0,0.0,85,0.00,,,0.12,Wunderground v.1.15,2013-09-09 03:20:00,
2013-09-08 23:25:00,46.4,42.4,30.09,NNW,334,0.0,0.0,86,0.00,,,0.12,Wunderground v.1.15,2013-09-09 03:25:00,
2013-09-08 23:30:00,46.7,42.7,30.09,NNW,334,0.0,0.0,86,0.00,,,0.12,Wunderground v.1.15,2013-09-09 03:30:00,
2013-09-08 23:35:00,46.7,42.4,30.09,NNW,334,0.0,0.0,85,0.00,,,0.12,Wunderground v.1.15,2013-09-09 03:35:00,
2013-09-08 23:40:00,46.5,42.2,30.09,NNW,334,0.0,0.0,85,0.00,,,0.12,Wunderground v.1.15,2013-09-09 03:40:00,
2013-09-08 23:45:00,46.2,42.2,30.10,NNW,334,0.0,0.0,86,0.00,,,0.12,Wunderground v.1.15,2013-09-09 03:45:00,
2013-09-08 23:50:00,46.0,42.3,30.10,NNW,334,0.0,0.0,87,0.00,,,0.12,Wunderground v.1.15,2013-09-09 03:50:00,
2013-09-08 23:55:00,45.7,42.1,30.10,NNW,334,0.0,1.0,87,0.00,,,0.12,Wunderground v.1.15,2013-09-09 03:55:00,